{"data":{"norad_id":58100,"epoch":"2026-05-24T19:09:03.528864Z","epoch_age_seconds":92236,"freshness":"FRESH","line1":"1 58100U 23161D   26144.79795751  .00000024  00000+0  12937-4 0  9995","line2":"2 58100  53.1594 172.0433 0001180  83.3592 276.7543 15.30189398146072","mean_motion":15.30189398,"eccentricity":0.000118,"inclination_deg":53.1594,"raan_deg":172.0433,"arg_perigee_deg":83.3592,"mean_anomaly_deg":276.7543,"bstar":1.2937e-5,"rev_number":14607,"period_min":94.105997720421,"perigee_km":474.43802598349,"apogee_km":476.05542454266,"semimajor_km":6853.3837252631,"source":"CELESTRAK","updated_at":"2026-05-25T13:38:18.526439Z"}}